Date String (YYYY-MM-DD hh:mm:ss) UTC,Instrument flags,Ambient pressure (hPa),Sample flow (lpm),Bypass flow (lpm),Sample temperature (°C),Ambient temperature (°C),ASC tube jacket temperature (°C),LED temperature (°C),Box temperature (°C),Sample RH (%),Span deviation,Mass concentration (μg/m³),Mass concentration (μg/m³),Mass concentration (μg/m³)
DateTimeUTC,F1_M11,P_M11,Q1_M11,Q2_M11,T1_M11,T2_M11,T3_M11,T4_M11,T5_M11,U1_M11,ZSPAN_M11,X2_M11,X0_M11,X1_M11
2022-01-11 07:00:00,,0832.3,5.00,0.00,24.0,23.3,00.0,33.1,25.8,05.5,0000.0,0001.78,0004.65,0001.31
2022-01-11 07:01:00,,0832.2,5.01,0.00,24.0,23.2,00.0,33.1,25.7,05.9,0000.0,0001.70,0003.74,0001.22
2022-01-11 07:02:00,,0832.2,4.99,0.00,24.0,23.2,00.0,33.0,25.7,05.5,0000.0,0001.67,0003.17,0001.17
2022-01-11 07:03:00,,0832.1,4.99,0.00,23.9,23.2,00.0,33.0,25.6,05.2,0000.0,0001.61,0002.61,0001.14
2022-01-11 07:04:00,,0832.1,5.02,0.00,23.9,23.2,00.0,33.0,25.6,05.7,0000.0,0001.59,0002.42,0001.14
2022-01-11 07:05:00,,0832.1,5.00,0.00,23.9,23.2,00.0,33.0,25.6,06.2,0000.0,0001.66,0002.57,0001.21
2022-01-11 07:06:00,,0832.1,4.99,0.00,23.9,23.1,00.0,33.0,25.6,06.1,0000.0,0001.74,0002.70,0001.28
2022-01-11 07:07:00,,0832.1,5.01,0.00,23.9,23.1,00.0,33.0,25.5,06.3,0000.0,0001.83,0002.83,0001.37
2022-01-11 07:08:00,,0832.1,4.99,0.00,23.9,23.1,00.0,33.0,25.6,05.9,0000.0,0001.83,0002.79,0001.36
2022-01-11 07:09:00,,0832.1,5.00,0.00,23.8,23.1,00.0,33.0,25.6,05.4,0000.0,0001.80,0002.79,0001.34
2022-01-11 07:10:00,,0832.1,5.00,0.00,23.8,23.1,00.0,32.9,25.6,05.8,0000.0,0001.79,0002.76,0001.35
2022-01-11 07:11:00,,0832.1,4.99,0.00,23.8,23.0,00.0,32.9,25.5,06.3,0000.0,0001.89,0003.04,0001.42
2022-01-11 07:12:00,,0832.1,5.01,0.00,23.8,23.0,00.0,32.9,25.5,06.4,0000.0,0001.98,0004.58,0001.49
2022-01-11 07:13:00,,0832.1,4.99,0.00,23.8,23.0,00.0,32.9,25.5,06.4,0000.0,0002.05,0004.78,0001.56
2022-01-11 07:14:00,,0832.1,4.99,0.00,23.8,23.0,00.0,32.9,25.5,06.2,0000.0,0002.20,0005.06,0001.66
2022-01-11 07:15:00,,0832.1,5.01,0.00,23.7,23.0,00.0,32.9,25.5,05.9,0000.0,0002.25,0005.15,0001.70
2022-01-11 07:16:00,,0832.1,5.00,0.00,23.7,23.0,00.0,32.9,25.5,05.6,0000.0,0002.15,0004.93,0001.64
2022-01-11 07:17:00,,0832.1,4.99,0.00,23.7,23.0,00.0,32.8,25.5,05.7,0000.0,0002.11,0004.89,0001.58
2022-01-11 07:18:00,,0832.1,5.01,0.00,23.7,23.0,00.0,32.8,25.4,06.2,0000.0,0002.09,0005.64,0001.54
2022-01-11 07:19:00,,0831.9,4.99,0.00,23.7,22.9,00.0,32.8,25.4,06.6,0000.0,0002.20,0005.93,0001.59
2022-01-11 07:20:00,,0832.0,4.99,0.00,23.6,22.9,00.0,32.8,25.3,06.6,0000.0,0002.34,0006.29,0001.70
2022-01-11 07:21:00,,0832.0,5.01,0.00,23.6,22.8,00.0,32.8,25.3,06.7,0000.0,0002.53,0007.34,0001.85
2022-01-11 07:22:00,,0832.0,4.99,0.00,23.6,22.8,00.0,32.8,25.2,07.0,0000.0,0002.69,0007.44,0002.00
2022-01-11 07:23:00,,0831.9,5.01,0.00,23.6,22.8,00.0,32.7,25.3,07.2,0000.0,0002.91,0006.47,0002.17
2022-01-11 07:24:00,,0831.9,4.99,0.00,23.6,22.8,00.0,32.7,25.3,07.2,0000.0,0003.11,0006.84,0002.35
2022-01-11 07:25:00,,0831.9,5.00,0.00,23.6,22.9,00.0,32.7,25.4,06.9,0000.0,0003.17,0007.01,0002.47
2022-01-11 07:26:00,,0831.9,5.00,0.00,23.6,22.9,00.0,32.7,25.4,06.8,0000.0,0003.24,0007.15,0002.59
2022-01-11 07:27:00,,0831.7,5.01,0.00,23.6,23.0,00.0,32.7,25.4,06.3,0000.0,0003.30,0007.31,0002.70
2022-01-11 07:28:00,,0831.8,5.00,0.00,23.6,23.0,00.0,32.7,25.4,06.0,0000.0,0003.34,0007.40,0002.77
2022-01-11 07:29:00,,0831.8,5.00,0.00,23.7,23.0,00.0,32.7,25.5,06.0,0000.0,0003.36,0006.90,0002.83
2022-01-11 07:30:00,,0831.8,4.99,0.00,23.7,23.0,00.0,32.7,25.5,05.7,0000.0,0003.32,0006.68,0002.79
2022-01-11 07:31:00,,0831.7,5.00,0.00,23.7,23.0,00.0,32.7,25.5,05.4,0000.0,0003.25,0006.41,0002.71
2022-01-11 07:32:00,,0831.7,4.99,0.00,23.7,23.0,00.0,32.7,25.5,05.1,0000.0,0003.14,0005.18,0002.58
2022-01-11 07:33:00,,0831.8,5.01,0.00,23.7,23.0,00.0,32.7,25.5,05.3,0000.0,0002.96,0005.08,0002.41
2022-01-11 07:34:00,,0831.8,5.00,0.00,23.7,23.0,00.0,32.7,25.5,05.4,0000.0,0002.66,0004.92,0002.19
2022-01-11 07:35:00,,0831.7,4.99,0.00,23.7,23.0,00.0,32.7,25.4,05.2,0000.0,0002.32,0004.32,0001.92
2022-01-11 07:36:00,,0831.8,5.00,0.00,23.7,23.0,00.0,32.7,25.4,05.6,0000.0,0002.09,0003.94,0001.71
2022-01-11 07:37:00,,0831.8,5.01,0.00,23.7,23.0,00.0,32.7,25.4,06.0,0000.0,0001.98,0004.11,0001.59
2022-01-11 07:38:00,,0831.9,5.00,0.00,23.7,23.0,00.0,32.7,25.4,06.0,0000.0,0001.86,0004.10,0001.47
2022-01-11 07:39:00,,0831.7,5.00,0.00,23.6,23.0,00.0,32.7,25.4,05.9,0000.0,0001.78,0004.53,0001.39
2022-01-11 07:40:00,,0831.7,4.98,0.00,23.6,23.0,00.0,32.7,25.4,05.7,0000.0,0001.68,0004.41,0001.32
2022-01-11 07:41:00,,0831.7,5.01,0.00,23.7,23.0,00.0,32.7,25.4,05.6,0000.0,0001.59,0004.15,0001.25
2022-01-11 07:42:00,,0831.7,4.99,0.00,23.7,23.0,00.0,32.7,25.4,05.6,0000.0,0001.55,0004.11,0001.21
2022-01-11 07:43:00,,0831.7,4.99,0.00,23.6,23.0,00.0,32.7,25.4,05.4,0000.0,0001.53,0004.06,0001.20
2022-01-11 07:44:00,,0831.7,5.01,0.00,23.6,22.9,00.0,32.7,25.4,05.4,0000.0,0001.52,0003.87,0001.20
2022-01-11 07:45:00,,0831.7,5.00,0.00,23.6,22.9,00.0,32.7,25.3,05.5,0000.0,0001.44,0003.30,0001.15
2022-01-11 07:46:00,,0831.7,5.01,0.00,23.6,22.9,00.0,32.7,25.4,05.7,0000.0,0001.46,0003.35,0001.15
2022-01-11 07:47:00,,0831.7,4.99,0.00,23.6,22.9,00.0,32.7,25.4,05.7,0000.0,0001.44,0003.26,0001.14
2022-01-11 07:48:00,,0831.7,5.00,0.00,23.6,22.9,00.0,32.7,25.4,05.6,0000.0,0001.37,0002.81,0001.10
2022-01-11 07:49:00,,0831.7,5.01,0.00,23.6,22.9,00.0,32.7,25.4,05.3,0000.0,0001.28,0002.69,0001.03
2022-01-11 07:50:00,,0831.6,5.01,0.00,23.6,22.9,00.0,32.7,25.4,05.3,0000.0,0001.20,0001.92,0000.97
2022-01-11 07:51:00,,0831.6,4.99,0.00,23.6,22.9,00.0,32.7,25.3,05.3,0000.0,0001.15,0001.79,0000.91
2022-01-11 07:52:00,,0831.6,5.00,0.00,23.6,22.9,00.0,32.7,25.3,05.2,0000.0,0001.06,0001.62,0000.86
2022-01-11 07:53:00,,0831.6,5.00,0.00,23.6,22.9,00.0,32.6,25.4,05.3,0000.0,0000.98,0001.49,0000.81
2022-01-11 07:54:00,,0831.6,5.00,0.00,23.6,22.9,00.0,32.6,25.4,05.6,0000.0,0000.95,0001.47,0000.77
2022-01-11 07:55:00,,0831.6,5.01,0.00,23.6,22.9,00.0,32.6,25.3,05.8,0000.0,0000.92,0001.44,0000.74
2022-01-11 07:56:00,,0831.5,5.00,0.00,23.6,22.8,00.0,32.6,25.2,05.7,0000.0,0000.89,0001.42,0000.71
2022-01-11 07:57:00,,0831.5,5.00,0.00,23.5,22.8,00.0,32.6,25.2,05.4,0000.0,0000.81,0001.29,0000.65
2022-01-11 07:58:00,,0831.5,5.01,0.00,23.5,22.8,00.0,32.6,25.2,05.3,0000.0,0000.73,0001.17,0000.59
2022-01-11 07:59:00,,0831.5,5.00,0.00,23.5,22.8,00.0,32.6,25.2,05.3,0000.0,0000.66,0001.05,0000.53
